TimeMST,TemperatureF,Dew PointF,Humidity,Sea Level PressureIn,VisibilityMPH,Wind Direction,Wind SpeedMPH,Gust SpeedMPH,PrecipitationIn,Events,Conditions,WindDirDegrees,DateUTC
12:53 AM,39.0,27.0,62,30.08,10.0,Calm,Calm,-,N/A,,Overcast,0,2012-11-18 07:53:00
1:53 AM,37.9,26.1,62,30.06,10.0,NE,6.9,-,N/A,,Overcast,50,2012-11-18 08:53:00
2:53 AM,37.0,26.1,65,30.08,10.0,Calm,Calm,-,N/A,,Mostly Cloudy,0,2012-11-18 09:53:00
3:53 AM,32.0,23.0,69,30.08,10.0,Calm,Calm,-,N/A,,Clear,0,2012-11-18 10:53:00
4:53 AM,34.0,26.1,73,30.09,10.0,NNE,5.8,-,N/A,,Mostly Cloudy,30,2012-11-18 11:53:00
5:53 AM,34.0,26.1,73,30.10,10.0,ENE,4.6,-,N/A,,Mostly Cloudy,70,2012-11-18 12:53:00
6:53 AM,36.0,28.0,73,30.10,10.0,ENE,3.5,-,N/A,,Overcast,60,2012-11-18 13:53:00
7:53 AM,39.0,30.0,70,30.11,10.0,Calm,Calm,-,N/A,,Overcast,0,2012-11-18 14:53:00
8:53 AM,39.9,28.9,65,30.15,10.0,Calm,Calm,-,N/A,,Overcast,0,2012-11-18 15:53:00
9:53 AM,42.1,30.0,62,30.14,10.0,Calm,Calm,-,N/A,,Overcast,0,2012-11-18 16:53:00
10:14 AM,42.8,30.2,61,30.12,10.0,ESE,3.5,-,N/A,,Overcast,120,2012-11-18 17:14:00
10:22 AM,44.6,30.2,57,30.12,10.0,ESE,3.5,-,N/A,,Overcast,120,2012-11-18 17:22:00
10:53 AM,46.0,32.0,58,30.12,10.0,ESE,6.9,-,N/A,,Overcast,120,2012-11-18 17:53:00
11:53 AM,48.0,30.9,52,30.11,10.0,SE,4.6,-,N/A,,Mostly Cloudy,140,2012-11-18 18:53:00
12:53 PM,48.0,30.9,52,30.10,10.0,Calm,Calm,-,N/A,,Overcast,0,2012-11-18 19:53:00
1:53 PM,48.9,30.9,50,30.09,10.0,Calm,Calm,-,N/A,,Overcast,0,2012-11-18 20:53:00
2:53 PM,51.1,30.9,46,30.07,10.0,SE,4.6,-,N/A,,Clear,130,2012-11-18 21:53:00
3:53 PM,50.0,30.0,46,30.11,10.0,Calm,Calm,-,N/A,,Mostly Cloudy,0,2012-11-18 22:53:00
4:53 PM,50.0,30.0,46,30.12,10.0,Calm,Calm,-,N/A,,Mostly Cloudy,0,2012-11-18 23:53:00
5:53 PM,44.1,28.9,55,30.15,10.0,NNE,6.9,-,N/A,,Overcast,20,2012-11-19 00:53:00
6:53 PM,42.1,28.9,60,30.16,10.0,NE,4.6,-,N/A,,Mostly Cloudy,40,2012-11-19 01:53:00
7:53 PM,42.1,28.9,60,30.15,10.0,North,8.1,-,N/A,,Mostly Cloudy,10,2012-11-19 02:53:00
8:53 PM,41.0,30.0,65,30.17,10.0,NNE,9.2,-,N/A,,Mostly Cloudy,20,2012-11-19 03:53:00
9:53 PM,39.9,28.9,65,30.19,10.0,NNE,9.2,-,N/A,,Mostly Cloudy,20,2012-11-19 04:53:00
10:53 PM,37.9,28.0,68,30.18,10.0,East,4.6,-,N/A,,Clear,80,2012-11-19 05:53:00
11:53 PM,36.0,27.0,70,30.20,10.0,North,4.6,-,N/A,,Clear,10,2012-11-19 06:53:00